Tracking 29487 objects as of 10-Sep-2024
HD Live streaming from Space Station
objects crossing your sky now

THOR ABLESTAR DEB

Track THOR ABLESTAR DEB now!
10-day predictions


NORAD ID: 48811
Int'l Code: 1961-015MP
Perigee: 893.4 km
Apogee: 1,054.6 km
Inclination: 67.1 °
Period: 104.4 minutes
Semi major axis: 7345 km
RCS: Unknown
Launch date: June 29, 1961
Source: United States (US)
Launch site: AIR FORCE EASTERN TEST RANGE (AFETR)

Note: This is SATELLITE DEBRIS
Your satellite tracking list
Your tracking list is empty




NASA's NSSDC Master Catalog

Two Line Element Set (TLE):
1 48811U 61015MP  24253.27611584  .00001071  00000-0  10675-2 0  9995
2 48811  67.0588  85.2587 0109762 259.7828  99.0854 13.79158565543534
Source of the keplerian elements: AFSPC